{"data":{"norad_id":59773,"epoch":"2026-05-24T17:51:20.875968Z","epoch_age_seconds":90401,"freshness":"FRESH","line1":"1 59773U 24092A   26144.74399162  .00006074  00000+0  28772-3 0  9991","line2":"2 59773  97.4354 261.0547 0014321  95.4793 264.8075 15.19599408112825","mean_motion":15.19599408,"eccentricity":0.0014321,"inclination_deg":97.4354,"raan_deg":261.0547,"arg_perigee_deg":95.4793,"mean_anomaly_deg":264.8075,"bstar":0.00028772,"rev_number":11282,"period_min":94.761816332584,"perigee_km":497.19010537814,"apogee_km":516.91065907832,"semimajor_km":6885.1873822282,"source":"CELESTRAK","updated_at":"2026-05-25T13:38:01.629641Z"}}